Miscellaneous Local Product
Issued by NWS North Platte, NE

Home | Current Version | Previous Version | Text Only | Print | Product List | Glossary On
Versions: 1 2 3 4 5 6 7 8 9 10 11 12 13 14 15 16 17 18 19 20 21 22 23 24 25 26 27 28 29 30 31 32 33 34 35 36 37 38 39 40 41 42 43 44 45 46 47 48 49 50
000
AXUS43 KLBF 201910
MISLBF


WESTERN AND NORTH CENTRAL NEBRASKA HOURLY WEATHER ROUNDUP
NATIONAL WEATHER SERVICE NORTH PLATTE NE
200 PM CDT MON OCT 20 2014

***STATIONS NOT REPORTING VARIABLES SUCH AS SKY/WEATHER OR
PRESSURE ARE PROVIDED BY THE NEBRASKA DEPARTMENT OF
ROADS...RAWS...AND APRS NETWORKS...AND ARE NOT UNDER
NATIONAL WEATHER SERVICE QUALITY CONTROL***

...OBSERVATIONS IN AND NEAR THE EASTERN PANHANDLE OF NEBRASKA...

CITY           SKY/WX    TMP DP  RH WIND       PRES   REMARKS
PINE RIDGE     SUNNY     77  40  26 S16       30.02F
CHADRON        SUNNY     78  43  28 S18       30.00F
ALLIANCE       SUNNY     74  38  27 S21G28    30.07F
SIDNEY         SUNNY     73  37  27 S16       30.11F
WHITECLAY        N/A     76  39  25 S17         N/A
RUSHVILLE        N/A     80  24  13 S23         N/A
CRESCENT LAKE    N/A     75  39  27 S10G21      N/A
LISCO            N/A     79  26  14 S14         N/A
BIG SPRINGS      N/A     72  43  34 S7          N/A
LEWELLEN         N/A     81  31  16 S17         N/A
$$

...OBSERVATIONS IN NORTH CENTRAL NEBRASKA...

CITY           SKY/WX    TMP DP  RH WIND       PRES   REMARKS
VALENTINE      SUNNY     75  38  26 S13       30.06F
THEDFORD       SUNNY     76  41  28 S8        30.09F
AINSWORTH      SUNNY     72  39  29 S8        30.08F
O`NEILL        SUNNY     69  40  34 CALM      30.10F
ORD            SUNNY     70  41  34 E6        30.09F
BROKEN BOW     SUNNY     73  44  35 SE8       30.10F
BROWNLEE         N/A     78  39  24 S14         N/A
SPRINGVIEW       N/A     74  44  33 S5          N/A
BREWSTER         N/A     77  41  27 S7          N/A
ROSE             N/A     76  45  32 SE6         N/A
NEWPORT          N/A     72  42  33 SE8         N/A
SARGENT          N/A     72  43  34 CALM        N/A
COMSTOCK         N/A     77  44  30 CALM        N/A
CHAMBERS         N/A     69  43  39 CALM        N/A
$$

...OBSERVATIONS IN SOUTHWEST NEBRASKA AND FAR NORTHEAST COLORADO...

CITY           SKY/WX    TMP DP  RH WIND       PRES   REMARKS
WRAY           FAIR      78  38  23 SE17G23   30.12F
HOLYOKE        FAIR      79  36  21 S12G20    30.11F
IMPERIAL       SUNNY     74  38  27 S13       30.11F
OGALLALA       SUNNY     77  41  27 S8        30.10F
NORTH PLATTE   SUNNY     75  42  30 SW10      30.10F
MCCOOK         SUNNY     76  43  30 VRB5      30.11F
LEXINGTON      SUNNY     74  41  29 S6        30.11F
PAXTON           N/A     72  45  37 S6          N/A
SUTHERLAND       N/A     78  38  23 S7          N/A
BRADY            N/A     73  46  38 CALM        N/A
GOTHENBURG       N/A     72  40  31 SE3         N/A
CALLAWAY         N/A     74  44  34 S7          N/A
$$

...SOME WEATHER OBSERVATIONS FROM AROUND THE REGION...

CITY           SKY/WX    TMP DP  RH WIND       PRES   REMARKS
DENVER         MOSUNNY   76  34  21 S15G22    30.11F
LARAMIE        SUNNY     64  32  30 W5        30.18F
CHEYENNE       SUNNY     70  33  25 S16G24    30.15F
SCOTTSBLUFF    SUNNY     78  48  34 S12       30.05F
RAPID CITY     SUNNY     72  42  34 SE17      29.98F
PIERRE         SUNNY     71  38  29 SE14      30.03F
WINNER         FAIR      74  38  27 S10       30.06F
SIOUX FALLS    MOSUNNY   69  41  36 W8        30.05F
OMAHA          SUNNY     70  37  29 VRB7      30.07F
GRAND ISLAND   SUNNY     70  40  33 E5        30.10F
KANSAS CITY    SUNNY     72  48  42 NE5       30.05F
WICHITA        SUNNY     79  49  34 NE8       30.04F
HAYS           SUNNY     75  48  38 E6        30.09F
LIBERAL        SUNNY     73  55  53 E13       30.12F
GOODLAND       SUNNY     73  41  31 SE14      30.14F
$$



USA.gov is the U.S. government's official web portal to all federal, state and local government web resources and services.